Change the Weather History Date:

Monday, June 11, 2012

  Actual Average Record
Temperature  
Mean Temperature 57 °F -  
Max Temperature 64 °F 66 °F 87 °F (1997)
Min Temperature 50 °F 53 °F 43 °F (1966)
Degree Days  
Heating Degree Days 8    
Growing Degree Days 7 (Base 50)    
Moisture  
Dew Point 52 °F    
Average Humidity 86    
Maximum Humidity 100    
Minimum Humidity 67    
Precipitation  
Precipitation 0.00 in - - ()
Sea Level Pressure  
Sea Level Pressure 30.28 in    
Wind  
Wind Speed 6 mph (SE)    
Max Wind Speed 13 mph    
Max Gust Speed -    
Visibility 7 miles    
Events Fog    
Averages and records for this station are not official NWS values.
T = Trace of Precipitation, MM = Missing Value Source: NWS Daily Summary

Daily Weather History Graph

Daily Weather History Graph

Search for Another Location

Airport or City:

Trip Planner

Search our weather history database for the weather conditions in past years. The results will help you decide how hot, cold, wet, or windy it might be!

Date:

Astronomy

Jun. 11, 2012 Rise Set
Actual Time 5:06 AM EDT 8:13 PM EDT
Civil Twilight 4:33 AM EDT 8:47 PM EDT
Nautical Twilight 3:50 AM EDT 9:30 PM EDT
Astronomical Twilight 2:59 AM EDT 10:21 PM EDT
Moon 12:28 AM EDT (6/11) 12:56 PM EDT (6/11)
Length of Visible Light 16h 14m
Length of Day
15h 06m
Waning Gibbous, 48% of the Moon is Illuminated
Jun 11
Waning Gibbous
Jun 19
New
Jun 26
First Quarter
Jul 3
Full
Jul 10
Last Quarter

Hourly Weather History & Observations

Time (EDT) Temp. Dew Point Humidity Pressure Visibility Wind Dir Wind Speed Gust Speed Precip Events Conditions
12:53 AM 53.1 °F 50.0 °F 89% 30.24 in 10.0 mi SE 3.5 mph - N/A   Clear
1:53 AM 53.1 °F 50.0 °F 89% 30.24 in 10.0 mi Calm Calm - N/A   Clear
2:53 AM 53.1 °F 51.1 °F 93% 30.24 in 10.0 mi Calm Calm - N/A   Clear
3:53 AM 50.0 °F 46.9 °F 89% 30.24 in 10.0 mi NE 3.5 mph - N/A   Clear
4:53 AM 53.1 °F 50.0 °F 89% 30.24 in 10.0 mi East 8.1 mph - N/A   Clear
5:53 AM 54.0 °F 52.0 °F 93% 30.26 in 10.0 mi ENE 5.8 mph - N/A   Clear
6:53 AM 57.9 °F 53.1 °F 84% 30.29 in 10.0 mi ENE 6.9 mph - N/A   Clear
7:53 AM 60.1 °F 53.1 °F 78% 30.30 in 10.0 mi East 12.7 mph - N/A   Clear
8:53 AM 62.6 °F 53.6 °F 72% 30.30 in 10.0 mi East 10.4 mph - N/A   Clear
9:53 AM 64.0 °F 53.1 °F 67% 30.31 in 10.0 mi East 11.5 mph - N/A   Clear
10:53 AM 64.0 °F 55.0 °F 73% 30.32 in 10.0 mi ESE 11.5 mph - N/A   Clear
11:53 AM 64.0 °F 54.0 °F 70% 30.32 in 10.0 mi SE 10.4 mph - N/A   Clear
12:53 PM 62.1 °F 52.0 °F 70% 30.32 in 10.0 mi SE 11.5 mph - N/A   Clear
1:53 PM 62.1 °F 52.0 °F 70% 30.31 in 10.0 mi SSE 10.4 mph - N/A   Clear
2:53 PM 61.0 °F 51.1 °F 70% 30.31 in 10.0 mi SE 11.5 mph - N/A   Clear
3:53 PM 60.1 °F 52.0 °F 75% 30.30 in 10.0 mi SE 11.5 mph - N/A   Clear
4:53 PM 59.0 °F 52.0 °F 78% 30.28 in 10.0 mi SSE 9.2 mph - N/A   Clear
5:53 PM 57.0 °F 53.1 °F 87% 30.29 in 10.0 mi SSE 6.9 mph - N/A   Clear
6:45 PM 53.6 °F 51.8 °F 94% 30.28 in 0.8 mi SSE 10.4 mph - N/A   Mist
6:53 PM 53.1 °F 52.0 °F 96% 30.28 in 0.8 mi SSE 10.4 mph - N/A   Mist
7:53 PM 52.0 °F 52.0 °F 100% 30.27 in 0.2 mi SSE 6.9 mph - N/A Fog Fog
8:15 PM 51.8 °F 51.8 °F 100% 30.27 in 0.2 mi SE 8.1 mph - N/A Fog Fog
8:34 PM 51.8 °F 51.8 °F 100% 30.26 in 0.5 mi SE 6.9 mph - N/A Fog Fog
8:53 PM 52.0 °F 52.0 °F 100% 30.27 in 0.5 mi SSE 6.9 mph - N/A Fog Fog
9:53 PM 52.0 °F 52.0 °F 100% 30.28 in 0.5 mi SSE 5.8 mph - N/A Fog Fog
10:53 PM 52.0 °F 52.0 °F 100% 30.27 in 0.8 mi SSE 6.9 mph - N/A   Mist
11:53 PM 52.0 °F 52.0 °F 100% 30.27 in 0.8 mi SSW 3.5 mph - N/A   Mist